ARIANE 5 DEB (SYLDA), 54744

Orbit data source: Space-Track

ARIANE 5 DEB (SYLDA), 54744 is space debris in HEO originally from a launch on Tue, 13 Dec 2022 UTC launched from the French Guiana (FRGUI). Debris objects in space refer to the collection of defunct objects orbiting the Earth. Examples of debris include non-operational satellites, rocket bodies, and fragments generated from explosions, collisions, or faulty payload assembly.

Loading next visibility...
Identifier
54744, 2022-170D
Orbit
HEO
Country
Flag of FRFR
Related business
Manufacturer
ADS/Bremen
Mission
Spacecraft
Bus & Motor
SYLDA 5, Unknown motor
Mass
440 kg wet, 440 kg dry
Launch date (UTC)
2022-12-13 (4 years ago)
Launch vehicle
Unknown
Launch site
French Guiana (FRGUI)
Object type
Payload
Rocket body
Debris
Shape & HBR
Cyl, 2.8 m
Radar Cross Section
27.391 m², Large (>1 m²)

Expand to show TLE details & history
Last TLE update: 3 days ago

TLE from 3 days ago
0 ARIANE 5 DEB (SYLDA)
1 54744U 22170D   26170.58106901  .00321944  13974-6  46008-2 0  9995
2 54744   6.2676 255.4510 5201319  80.6187 332.1869  5.42391095 49368
Epoch: 2026-06-19T13:56Z
TLE epoch observation values (Epoch: 2026-06-19T13:56:44.362Z)
Latitude
0.00001°
Longitude
138.54843°
Altitude
2,815.099 km
Speed
7.588 km/s
True Right ascension
17h 02m 09s
True Declination
0° 00' 00"
Sunlit
Object was in full shadow at epoch
Visualization orbit readout
Latitude
Unknown
Longitude
Unknown
Altitude
Unknown
Speed
Unknown
Apparent Right ascension
Unknown
Apparent Declination
Unknown
Sunlit
N/A
Visualization observer readout
Local Sidereal Time
21:45:16
Azimuth
Unknown
Elevation
Unknown
Doppler factor
Unknown
Orbital elements
Apogee altitude
14,430.137 km
Perigee altitude
190.521 km
Semi-major axis
13,688.466 km
Eccentricity
0.52013
Inclination
6.2676°
RAAN
255.451°
Arg. of periapsis
80.6187°
True anomaly
279.39242°
Mean anomaly
332.1869°
Eccentric anomaly
309.03999°
Mean motion
1.35522 °/min
Orbital period
265.64 mins
BSTAR
0.0046008
Loading maneuver chart data...
Computing Atmospheric mass density...
Loading historical data...
Loading historical data...
Loading historical data...
Loading historical data...
Loading historical data...
Loading historical data...
Loading historical data...
Other satellites on launch #170 in the year 2022 (2022-12-13 UTC)

Documentation

Showing up to 5 results
|